Location: Arbon
(43.0005°N, 0.7472°E)
Time: 11:34:14
(UTC+00:00)

Gbstr 26 Del rocket - Pass Details

Date: 22 April 2026
Orbit: 490 x 1216 km, 51.8° (Epoch: 15 May)

Event Time Altitude Azimuth Distance (km) Brightness Sun altitude
Rises 19:55:29 0° 205° (SSW) 3,466 6.8 -12.2°
Reaches altitude 10° 19:58:29 10° 196° (SSW) 2,395 5.9 -12.6°
Maximum altitude 20:03:12 30° 136° (SE) 1,266 4.1 -13.4°
Enters shadow 20:06:37 13° 80° (E) 1,822 5.0 -13.9°
